Home > Weather > Phuket > Past weeks

Flag for Thailand Past Weather in Phuket, Thailand — Yesterday and Last 2 Weeks

Now
77 °F

Light rain. Passing clouds.


Feels Like: 78 °F
Forecast: 81 / 86 °F
Wind: 2 mph from North

Location: Phuket Airport

Current Time: May 30, 2016 at 9:41:42 PM

Latest Report: May 30, 2016 at 9:00 PM


Visibility: 4 mi

Pressure: 29.86 "Hg

Humidity: 94%

Dew Point: 75 °F

Location of PhuketLocation

Past Weather in Phuket — Graph

°F

Phuket Temperature Yesterday

Maximum temperature yesterday: 88 °F (at 10:30 AM)
Minimum temperature yesterday: 77 °F (at 12:00 AM)
Average temperature yesterday: 81 °F

High & Low Weather Summary for the Past Weeks

 TemperatureHumidityPressure
High95 °F (May 18, 2:00 PM)100% (May 24, 8:30 PM)29.95 "Hg (May 24, 8:30 PM)
Low68 °F (May 24, 8:30 PM)50% (May 18, 2:30 PM)29.68 "Hg (May 16, 4:30 PM)
Average83 °F78%29.84 "Hg
* Reported May 15 8:00 PM — May 30 8:30 PM, Phuket, Weather by CustomWeather, © 2016

Note: Actual official high and low records may vary slightly from our data, if they occured in-between our weather recording intervals... More about our weather records

Advertising

Phuket Weather History for the Previous 24 Hours

Scroll right to see more
 ConditionsComfort  
Time TempWeatherWind HumidityBarometerVisibility
8:30 PM
Mon, May 30
77 °FLight rain. Passing clouds.2 mph89%29.83 "Hg4 mi
8:00 PM79 °FRain. Partly cloudy.7 mph84%29.83 "Hg4 mi
7:30 PM79 °FPassing clouds.9 mph84%29.86 "Hg5 mi
7:00 PM79 °FPassing clouds.No wind89%29.83 "HgN/A
6:00 PM81 °FPartly sunny.No wind84%29.83 "HgN/A
5:30 PM81 °FPartly sunny.No wind84%29.83 "HgN/A
5:00 PM81 °FPartly sunny.No wind84%29.83 "HgN/A
4:30 PM81 °FPartly sunny.No wind84%29.83 "Hg5 mi
4:00 PM81 °FLight rain. Partly sunny.No wind84%29.80 "Hg5 mi
3:30 PM81 °FRain. Partly sunny.No wind84%29.80 "Hg5 mi
3:00 PM81 °FRain. Partly sunny.No wind84%29.83 "Hg5 mi
2:30 PM81 °FPartly sunny.7 mph84%29.83 "Hg5 mi
2:00 PM81 °FLight rain. Partly sunny.9 mph84%29.86 "Hg5 mi
1:30 PM81 °FPartly sunny.7 mph84%29.86 "Hg4 mi
1:00 PM81 °FRain. Partly sunny.6 mph84%29.86 "Hg4 mi
12:30 PM81 °FRain. Partly sunny.6 mph84%29.86 "Hg4 mi
12:00 PM81 °FLight rain. Partly sunny.8 mph84%29.89 "Hg5 mi
11:30 AM81 °FPartly sunny.12 mph79%29.89 "Hg5 mi
11:00 AM81 °FPartly sunny.9 mph79%29.89 "Hg5 mi
10:30 AM82 °FBroken clouds.21 mph74%29.89 "Hg5 mi
10:00 AM84 °FBroken clouds.8 mph79%29.89 "Hg5 mi
9:30 AM81 °FBroken clouds.8 mph84%29.89 "Hg5 mi
9:00 AM81 °FRain. Broken clouds.9 mph79%29.86 "Hg4 mi
8:30 AM84 °FBroken clouds.8 mph79%29.86 "Hg5 mi
8:00 AM82 °FBroken clouds.No wind84%29.86 "Hg5 mi
7:30 AM84 °FBroken clouds.5 mph79%29.83 "Hg4 mi
7:00 AM82 °FBroken clouds.6 mph84%29.83 "Hg5 mi
6:30 AM81 °FBroken clouds.2 mph89%29.83 "Hg5 mi
6:00 AM81 °FPartly cloudy.3 mph84%29.80 "Hg5 mi
5:30 AM81 °FPartly cloudy.3 mph84%29.80 "Hg5 mi
5:00 AM81 °FPassing clouds.5 mph89%29.80 "Hg6 mi
4:30 AM81 °FPassing clouds.3 mph84%29.80 "Hg6 mi
4:00 AM82 °FPassing clouds.3 mph79%29.80 "Hg6 mi
3:30 AM84 °FPassing clouds.5 mph74%29.80 "Hg6 mi
3:00 AM82 °FPassing clouds.5 mph79%29.80 "Hg6 mi
2:30 AM82 °FPassing clouds.2 mph79%29.80 "Hg6 mi
2:00 AM82 °FPassing clouds.7 mph79%29.80 "Hg6 mi
1:30 AM82 °FPartly cloudy.5 mph79%29.80 "Hg5 mi
1:00 AM82 °FPartly cloudy.7 mph79%29.83 "Hg5 mi
12:30 AM82 °FPartly cloudy.8 mph79%29.83 "Hg5 mi
12:00 AM82 °FPartly cloudy.2 mph79%29.83 "Hg5 mi
11:30 PM
Sun, May 29
82 °FPartly cloudy.3 mph79%29.86 "Hg5 mi
11:00 PM82 °FPartly cloudy.5 mph79%29.86 "Hg5 mi
10:30 PM82 °FPartly cloudy.8 mph74%29.86 "Hg5 mi
10:00 PM82 °FPartly cloudy.6 mph79%29.86 "Hg5 mi
9:30 PM82 °FPartly cloudy.5 mph79%29.86 "Hg5 mi
9:00 PM82 °FPartly cloudy.6 mph74%29.83 "Hg5 mi
Weather by CustomWeather, © 2016

See weather overviewHow to use our weather pages